#�ϑ�����,���ϕ���,���ϕ���,�ő啗��,�ő啗����������,�ő�u�ԕ���,�ő�u�ԕ�����������
#(�N����),(m/s)   ,(16����),(m/s)   ,(16����)        ,(m/s)       ,(16����)            
2016/12/23 0:01,0.2,16,0.2,3,0.6,15
2016/12/23 0:02,0.4,16,0.4,3,1.6,15
2016/12/23 0:03,0.5,16,0.5,3,1.8,15
2016/12/23 0:04,0.5,16,0.5,2,1.4,16
2016/12/23 0:05,0.6,16,0.6,16,0.9,15
2016/12/23 0:06,0.6,16,0.6,16,0.6,16
2016/12/23 0:07,0.6,16,0.6,16,0.9,1
2016/12/23 0:08,0.7,16,0.7,16,1.5,16
2016/12/23 0:09,0.7,16,0.7,16,1.8,16
2016/12/23 0:10,0.8,16,0.8,16,2,16
2016/12/23 0:11,0.9,16,0.9,16,1.4,16
2016/12/23 0:12,0.9,16,0.9,16,1.4,1
2016/12/23 0:13,0.9,16,0.9,16,1.6,2
2016/12/23 0:14,0.8,1,0.9,16,0.5,4
2016/12/23 0:15,0.8,1,0.8,16,0.4,1
2016/12/23 0:16,0.8,1,0.8,16,1.1,2
2016/12/23 0:17,0.8,1,0.8,16,0.8,2
2016/12/23 0:18,0.8,1,0.8,16,0.9,1
2016/12/23 0:19,0.7,1,0.8,16,1.1,16
2016/12/23 0:20,0.6,1,0.7,16,1.4,16
2016/12/23 0:21,0.7,1,0.7,16,1.9,16
2016/12/23 0:22,0.7,1,0.7,16,1.6,16
2016/12/23 0:23,0.7,1,0.7,16,1.4,16
2016/12/23 0:24,0.8,1,0.8,1,1.3,16
2016/12/23 0:25,0.8,16,0.8,1,1.4,16
2016/12/23 0:26,0.9,16,0.9,16,1.4,16
2016/12/23 0:27,0.9,16,0.9,16,1.4,16
2016/12/23 0:28,0.9,16,0.9,16,1,16
2016/12/23 0:29,0.9,16,0.9,16,0.8,1
2016/12/23 0:30,0.9,16,0.9,16,1.1,1
2016/12/23 0:31,0.8,16,0.9,16,0.8,16
2016/12/23 0:32,0.7,16,0.8,16,1.1,16
2016/12/23 0:33,0.7,16,0.7,16,1.4,16
2016/12/23 0:34,0.7,16,0.7,16,1,16
2016/12/23 0:35,0.7,16,0.7,16,1.3,16
2016/12/23 0:36,0.7,16,0.7,16,1.1,16
2016/12/23 0:37,0.6,16,0.7,16,0.8,16
2016/12/23 0:38,0.6,16,0.6,16,0.8,13
2016/12/23 0:39,0.6,16,0.6,16,1.5,12
2016/12/23 0:40,0.6,15,0.6,16,2.4,11
2016/12/23 0:41,0.7,15,0.7,16,0.9,15
2016/12/23 0:42,0.6,15,0.7,16,0.1,15
2016/12/23 0:43,0.5,15,0.6,16,0.3,1
2016/12/23 0:44,0.5,15,0.5,16,0.3,15
2016/12/23 0:45,0.4,15,0.5,16,0,15
2016/12/23 0:46,0.3,15,0.4,16,0.9,15
2016/12/23 0:47,0.4,15,0.4,15,1,15
2016/12/23 0:48,0.4,14,0.4,15,0.9,16
2016/12/23 0:49,0.3,15,0.4,15,0.1,15
2016/12/23 0:50,0.2,15,0.3,15,0.1,1
2016/12/23 0:51,0.2,15,0.2,15,0.3,15
2016/12/23 0:52,0.2,15,0.2,15,0.3,8
2016/12/23 0:53,0.2,15,0.2,15,0.1,11
2016/12/23 0:54,0.2,14,0.2,15,0.1,7
2016/12/23 0:55,0.2,14,0.2,15,0,7
2016/12/23 0:56,0.1,14,0.2,15,0,7
2016/12/23 0:57,0.1,15,0.1,15,1,16
2016/12/23 0:58,0.1,2,0.1,14,0.4,16
2016/12/23 0:59,0.1,16,0.1,15,0.6,16
2016/12/23 1:00,0.2,16,0.2,15,1.3,16
2016/12/23 1:01,0.2,16,0.2,15,1.3,15
2016/12/23 1:02,0.3,16,0.3,16,0.8,11
2016/12/23 1:03,0.3,16,0.3,16,0.5,16
2016/12/23 1:04,0.4,16,0.4,16,1.6,12
2016/12/23 1:05,0.4,15,0.4,16,1.4,12
2016/12/23 1:06,0.5,15,0.5,15,0.8,14
2016/12/23 1:07,0.5,15,0.5,15,1.4,12
2016/12/23 1:08,0.5,14,0.5,15,1.5,13
2016/12/23 1:09,0.5,15,0.5,15,0.1,1
2016/12/23 1:10,0.4,15,0.5,15,0.5,15
2016/12/23 1:11,0.4,14,0.4,15,1.5,13
2016/12/23 1:12,0.5,15,0.5,15,1.1,13
2016/12/23 1:13,0.5,14,0.5,15,1,13
2016/12/23 1:14,0.5,15,0.5,15,1.1,16
2016/12/23 1:15,0.5,14,0.5,15,2.2,12
2016/12/23 1:16,0.5,14,0.5,15,1,12
2016/12/23 1:17,0.6,14,0.6,14,1.5,15
2016/12/23 1:18,0.6,14,0.6,14,2,10
2016/12/23 1:19,0.6,13,0.6,14,0.9,12
2016/12/23 1:20,0.8,13,0.8,13,2.9,12
2016/12/23 1:21,0.9,13,0.9,13,2.5,12
2016/12/23 1:22,0.9,13,0.9,13,2.2,11
2016/12/23 1:23,1,13,1,13,2.1,12
2016/12/23 1:24,1.1,13,1.1,13,2.2,11
2016/12/23 1:25,1.1,13,1.1,13,1.3,10
2016/12/23 1:26,1.1,12,1.1,13,1,10
2016/12/23 1:27,1.1,12,1.1,13,2.2,12
2016/12/23 1:28,1.1,12,1.1,13,1.8,12
2016/12/23 1:29,1.1,12,1.1,13,1.3,13
2016/12/23 1:30,1,12,1.1,13,1,12
2016/12/23 1:31,1,12,1,13,1.9,11
2016/12/23 1:32,1,12,1,13,1.6,13
2016/12/23 1:33,0.8,12,1,13,1.1,7
2016/12/23 1:34,0.8,12,0.8,13,1.1,13
2016/12/23 1:35,0.8,12,0.8,13,1.8,13
2016/12/23 1:36,0.8,13,0.9,12,1.1,14
2016/12/23 1:37,0.8,13,0.9,12,2.2,13
2016/12/23 1:38,0.9,12,0.9,12,2.9,12
2016/12/23 1:39,1,12,1,12,1.9,13
2016/12/23 1:40,1,12,1,12,1.4,12
2016/12/23 1:41,0.9,12,1,12,1.5,9
2016/12/23 1:42,0.8,13,0.9,12,0.6,14
2016/12/23 1:43,0.9,13,0.9,12,1.9,14
2016/12/23 1:44,0.9,13,0.9,12,0.6,12
2016/12/23 1:45,0.8,13,0.9,12,1.9,15
2016/12/23 1:46,0.8,13,0.8,12,1.6,15
2016/12/23 1:47,0.8,13,0.8,12,1.4,11
2016/12/23 1:48,0.6,13,0.8,12,0.8,13
2016/12/23 1:49,0.6,13,0.6,12,1.3,7
2016/12/23 1:50,0.6,13,0.6,12,1.6,12
2016/12/23 1:51,0.6,13,0.6,12,2.1,9
2016/12/23 1:52,0.7,12,0.7,13,1.9,11
2016/12/23 1:53,0.9,12,0.9,13,3.9,13
2016/12/23 1:54,1,12,1,12,4.4,12
2016/12/23 1:55,1.1,12,1.1,12,1.8,13
2016/12/23 1:56,1.2,11,1.2,11,3.6,10
2016/12/23 1:57,1.3,11,1.3,11,4.1,10
2016/12/23 1:58,1.4,11,1.4,11,1.6,9
2016/12/23 1:59,1.5,11,1.5,11,2.5,13
2016/12/23 2:00,1.6,11,1.6,11,3,12
2016/12/23 2:01,1.5,12,1.6,11,1.5,9
2016/12/23 2:02,1.5,12,1.6,11,1.8,11
2016/12/23 2:03,1.3,12,1.5,11,1,14
2016/12/23 2:04,1.2,12,1.3,11,1.6,11
2016/12/23 2:05,1.2,11,1.2,11,1.5,13
2016/12/23 2:06,1,12,1.2,11,1.6,12
2016/12/23 2:07,0.9,12,1,11,1.6,12
2016/12/23 2:08,1,12,1,11,1.8,12
2016/12/23 2:09,0.8,12,0.9,11,0.8,11
2016/12/23 2:10,0.8,12,0.8,11,2.5,12
2016/12/23 2:11,0.8,12,0.8,12,2.2,12
2016/12/23 2:12,0.8,12,0.8,12,1.5,15
2016/12/23 2:13,0.8,12,0.8,12,1,11
2016/12/23 2:14,0.8,12,0.8,12,1.8,13
2016/12/23 2:15,0.8,12,0.8,11,1.4,14
2016/12/23 2:16,0.8,12,0.9,12,2,12
2016/12/23 2:17,0.8,13,0.8,12,1.5,12
2016/12/23 2:18,0.9,13,0.9,12,2.5,12
2016/12/23 2:19,0.9,13,0.9,12,1.3,11
2016/12/23 2:20,0.9,13,1,13,1.1,11
2016/12/23 2:21,0.8,12,0.9,13,1.4,11
2016/12/23 2:22,0.9,12,0.9,13,1.8,11
2016/12/23 2:23,0.9,12,0.9,13,0.9,12
2016/12/23 2:24,0.8,12,0.9,13,1.4,13
2016/12/23 2:25,0.8,12,0.8,13,0.8,10
2016/12/23 2:26,0.7,12,0.8,13,1.8,11
2016/12/23 2:27,0.7,11,0.7,13,2.1,12
2016/12/23 2:28,0.7,11,0.7,13,2.2,13
2016/12/23 2:29,0.8,12,0.8,13,3,15
2016/12/23 2:30,0.9,12,0.9,13,3,12
2016/12/23 2:31,1,12,1,12,2.7,10
2016/12/23 2:32,1,12,1,12,2,12
2016/12/23 2:33,1,12,1,12,2.5,11
2016/12/23 2:34,1.1,12,1.1,12,2.2,14
2016/12/23 2:35,1.2,12,1.2,12,2.4,13
2016/12/23 2:36,1.2,12,1.2,12,1.6,12
2016/12/23 2:37,1.2,12,1.2,12,1.1,14
2016/12/23 2:38,1.2,13,1.2,12,3.2,14
2016/12/23 2:39,1.2,12,1.2,12,3.1,13
2016/12/23 2:40,1.3,12,1.3,13,2.9,11
2016/12/23 2:41,1.2,12,1.3,13,1.5,11
2016/12/23 2:42,1.3,12,1.3,13,2.7,11
2016/12/23 2:43,1.4,12,1.4,12,3.1,11
2016/12/23 2:44,1.4,12,1.4,12,2.7,13
2016/12/23 2:45,1.4,12,1.4,12,2,9
2016/12/23 2:46,1.4,12,1.4,12,2.4,12
2016/12/23 2:47,1.4,12,1.4,12,2.2,12
2016/12/23 2:48,1.5,12,1.5,12,2.7,12
2016/12/23 2:49,1.4,12,1.5,12,2.1,13
2016/12/23 2:50,1.3,11,1.4,12,2,11
2016/12/23 2:51,1.4,12,1.4,12,1.9,12
2016/12/23 2:52,1.4,12,1.4,12,2.7,13
2016/12/23 2:53,1.4,12,1.4,12,2.5,13
2016/12/23 2:54,1.2,12,1.4,12,0.8,13
2016/12/23 2:55,1.2,12,1.2,12,1.3,12
2016/12/23 2:56,1.2,12,1.2,12,1.5,12
2016/12/23 2:57,1.1,12,1.1,12,0.5,12
2016/12/23 2:58,0.9,12,1,12,0.1,13
2016/12/23 2:59,0.8,13,0.9,12,1.1,13
2016/12/23 3:00,0.8,13,0.8,11,1.9,14
2016/12/23 3:01,0.8,13,0.8,12,1.6,14
2016/12/23 3:02,0.5,13,0.7,12,0.6,15
2016/12/23 3:03,0.5,13,0.5,12,0.9,15
2016/12/23 3:04,0.4,14,0.5,12,0.9,1
2016/12/23 3:05,0.5,14,0.5,12,1,1
2016/12/23 3:06,0.5,14,0.5,12,1.6,16
2016/12/23 3:07,0.5,14,0.5,12,1,15
2016/12/23 3:08,0.5,14,0.5,12,0.6,14
2016/12/23 3:09,0.5,14,0.5,13,0.1,14
2016/12/23 3:10,0.3,14,0.5,13,0.3,13
2016/12/23 3:11,0.4,14,0.4,13,1.3,12
2016/12/23 3:12,0.4,14,0.4,13,1.5,11
2016/12/23 3:13,0.5,13,0.5,13,2.2,11
2016/12/23 3:14,0.8,13,0.8,13,5,11
2016/12/23 3:15,1.2,13,1.2,13,6.3,12
2016/12/23 3:16,1.3,13,1.3,13,3.2,15
2016/12/23 3:17,1.3,13,1.3,13,3,1
2016/12/23 3:18,1.4,12,1.4,13,1.8,15
2016/12/23 3:19,1.6,13,1.6,12,4.9,12
2016/12/23 3:20,1.8,13,1.8,13,2.9,13
2016/12/23 3:21,2,13,2,13,3.9,12
2016/12/23 3:22,2.2,13,2.2,13,5.1,1
2016/12/23 3:23,2.3,14,2.3,14,4.5,15
2016/12/23 3:24,2.2,14,2.3,14,3,1
2016/12/23 3:25,1.9,14,2.1,14,3.9,16
2016/12/23 3:26,1.9,14,1.9,14,3,14
2016/12/23 3:27,2.1,14,2.1,14,4.3,15
2016/12/23 3:28,2.3,15,2.3,14,4.2,14
2016/12/23 3:29,2.5,15,2.5,15,5.6,16
2016/12/23 3:30,2.6,15,2.6,15,7,15
2016/12/23 3:31,2.6,15,2.6,15,3.7,12
2016/12/23 3:32,2.4,15,2.6,15,5.8,16
2016/12/23 3:33,2.5,15,2.5,15,6.9,15
2016/12/23 3:34,2.8,15,2.8,15,6.1,15
2016/12/23 3:35,2.8,15,2.8,15,5.2,13
2016/12/23 3:36,2.9,15,2.9,15,4.3,15
2016/12/23 3:37,2.9,15,2.9,15,3.6,15
2016/12/23 3:38,2.8,15,2.9,15,3.6,16
2016/12/23 3:39,2.7,15,2.8,15,5,16
2016/12/23 3:40,2.6,15,2.7,15,3.5,1
2016/12/23 3:41,2.7,15,2.7,15,4.3,16
2016/12/23 3:42,3,15,3,15,6.3,15
2016/12/23 3:43,2.9,15,3,15,5.2,15
2016/12/23 3:44,3.1,15,3.1,15,7.4,15
2016/12/23 3:45,3.5,16,3.5,16,9.3,15
2016/12/23 3:46,3.5,15,3.5,16,4.4,14
2016/12/23 3:47,3.6,15,3.6,15,6,15
2016/12/23 3:48,3.7,15,3.7,15,5.7,16
2016/12/23 3:49,3.8,15,3.8,15,5.8,16
2016/12/23 3:50,3.9,15,3.9,15,6.8,15
2016/12/23 3:51,4,15,4,15,7,14
2016/12/23 3:52,4.1,15,4.1,15,8.4,16
2016/12/23 3:53,4.2,15,4.2,15,8.3,12
2016/12/23 3:54,4.1,15,4.2,15,7.7,14
2016/12/23 3:55,3.8,15,4,15,6.8,15
2016/12/23 3:56,3.8,15,3.8,15,5.5,15
2016/12/23 3:57,3.8,15,3.8,15,5.1,16
2016/12/23 3:58,3.9,15,3.9,15,4.5,16
2016/12/23 3:59,3.9,15,3.9,15,4.4,15
2016/12/23 4:00,3.7,15,3.9,15,4.3,14
2016/12/23 4:01,3.6,15,3.8,15,4.5,14
2016/12/23 4:02,3.4,15,3.6,15,4.1,14
2016/12/23 4:03,3.3,15,3.4,15,3.5,15
2016/12/23 4:04,3.2,15,3.3,15,4.9,15
2016/12/23 4:05,3.1,15,3.2,15,4.5,15
2016/12/23 4:06,3.1,15,3.1,15,5.7,16
2016/12/23 4:07,3.1,15,3.1,15,4.5,15
2016/12/23 4:08,2.9,15,3,15,2.6,15
2016/12/23 4:09,2.6,15,2.9,15,1.4,13
2016/12/23 4:10,2.4,15,2.6,15,2,13
2016/12/23 4:11,2.4,15,2.4,15,3.1,14
2016/12/23 4:12,2.3,15,2.4,15,3.2,16
2016/12/23 4:13,2.2,15,2.3,15,3,1
2016/12/23 4:14,2.1,15,2.2,15,3.7,16
2016/12/23 4:15,2,15,2.1,15,4.9,11
2016/12/23 4:16,1.9,14,2,15,5.1,12
2016/12/23 4:17,1.8,14,1.9,15,3.2,14
2016/12/23 4:18,1.9,14,1.9,15,4.5,12
2016/12/23 4:19,1.8,14,1.9,15,2.2,16
2016/12/23 4:20,2,15,2,15,3.7,15
2016/12/23 4:21,2.1,15,2.1,15,7.6,15
2016/12/23 4:22,2.4,15,2.4,15,9.1,16
2016/12/23 4:23,2.8,15,2.8,15,7,16
2016/12/23 4:24,3,15,3,15,8.1,16
2016/12/23 4:25,3.1,15,3.1,15,5.8,16
2016/12/23 4:26,3.2,15,3.2,15,5.2,16
2016/12/23 4:27,3.2,15,3.2,15,4.1,16
2016/12/23 4:28,3.2,16,3.2,15,2.4,15
2016/12/23 4:29,3.2,15,3.2,15,2.7,16
2016/12/23 4:30,3,15,3.2,15,1.3,10
2016/12/23 4:31,2.7,15,3,15,1.4,12
2016/12/23 4:32,2.3,15,2.6,15,2.7,13
2016/12/23 4:33,2,14,2.3,15,2.9,12
2016/12/23 4:34,1.7,14,1.9,15,2.4,12
2016/12/23 4:35,1.3,14,1.6,15,1.8,15
2016/12/23 4:36,1.1,14,1.3,15,3.1,14
2016/12/23 4:37,1.3,13,1.3,15,6.4,12
2016/12/23 4:38,1.2,13,1.3,16,1.8,11
2016/12/23 4:39,1.3,13,1.3,15,3.2,11
2016/12/23 4:40,1.4,13,1.4,15,3.8,11
2016/12/23 4:41,1.5,13,1.5,15,1.5,12
2016/12/23 4:42,1.5,13,1.5,15,4.3,14
2016/12/23 4:43,1.6,13,1.6,14,4.3,14
2016/12/23 4:44,1.8,13,1.8,13,4.1,12
2016/12/23 4:45,1.9,12,1.9,13,3.6,13
2016/12/23 4:46,1.9,12,1.9,13,2.5,13
2016/12/23 4:47,1.7,12,1.9,13,3.7,9
2016/12/23 4:48,1.8,12,1.8,13,2.4,12
2016/12/23 4:49,1.8,13,1.9,13,3.9,14
2016/12/23 4:50,1.7,13,1.8,13,2.1,14
2016/12/23 4:51,1.7,13,1.7,13,2.4,13
2016/12/23 4:52,1.9,13,1.9,13,4.9,14
2016/12/23 4:53,1.9,13,1.9,13,3.3,11
2016/12/23 4:54,1.8,13,1.9,13,3,14
2016/12/23 4:55,1.8,13,1.8,12,3.9,14
2016/12/23 4:56,1.9,13,1.9,12,2.9,14
2016/12/23 4:57,1.9,13,1.9,12,4.7,12
2016/12/23 4:58,2.2,14,2.2,14,5.1,12
2016/12/23 4:59,2.3,14,2.3,14,5,1
2016/12/23 5:00,2.6,14,2.6,14,5.6,15
2016/12/23 5:01,2.7,14,2.7,14,3.8,16
2016/12/23 5:02,2.5,15,2.7,14,3,16
2016/12/23 5:03,2.5,15,2.5,14,3.7,16
2016/12/23 5:04,2.6,15,2.6,14,2.9,1
2016/12/23 5:05,2.5,16,2.6,14,2.4,1
2016/12/23 5:06,2.4,16,2.5,14,1.6,16
2016/12/23 5:07,2.3,16,2.4,14,1.9,14
2016/12/23 5:08,2,16,2.2,14,1.6,14
2016/12/23 5:09,1.7,15,2,14,0.6,15
2016/12/23 5:10,1.4,15,1.7,14,1.8,14
2016/12/23 5:11,1.3,15,1.4,14,2.1,15
2016/12/23 5:12,1.3,15,1.3,15,2.2,15
2016/12/23 5:13,1.2,15,1.3,15,2,14
2016/12/23 5:14,1.1,14,1.2,15,2,1
2016/12/23 5:15,1.1,14,1.1,16,2.7,9
2016/12/23 5:16,1.2,14,1.2,16,3.1,14
2016/12/23 5:17,1.3,14,1.3,16,4.1,16
2016/12/23 5:18,1.6,14,1.6,16,6.8,12
2016/12/23 5:19,2,14,2,14,7.1,12
2016/12/23 5:20,2.1,14,2.1,14,4.2,12
2016/12/23 5:21,2.2,13,2.2,14,3.5,13
2016/12/23 5:22,2.1,13,2.2,14,1.9,15
2016/12/23 5:23,2.1,13,2.1,14,3,13
2016/12/23 5:24,2.2,13,2.2,14,3.3,11
2016/12/23 5:25,2.4,13,2.4,13,6.1,13
2016/12/23 5:26,2.7,13,2.7,13,6.1,13
2016/12/23 5:27,2.9,13,2.9,13,6.8,12
2016/12/23 5:28,2.9,13,2.9,13,4.8,12
2016/12/23 5:29,2.6,13,2.9,13,4.2,12
2016/12/23 5:30,2.6,13,2.6,13,2.5,14
2016/12/23 5:31,2.6,13,2.6,13,3.9,12
2016/12/23 5:32,3,13,3,13,6.7,12
2016/12/23 5:33,3.3,13,3.3,13,5.7,13
2016/12/23 5:34,3.5,13,3.5,13,6.5,15
2016/12/23 5:35,3.3,13,3.5,13,3.8,12
2016/12/23 5:36,3.2,13,3.3,13,5.5,11
2016/12/23 5:37,2.9,13,3.2,13,3,14
2016/12/23 5:38,2.8,13,2.9,13,2.4,14
2016/12/23 5:39,2.7,13,2.7,13,3,13
2016/12/23 5:40,2.6,13,2.7,13,3,13
2016/12/23 5:41,2.5,13,2.6,13,2.4,11
2016/12/23 5:42,2.1,13,2.5,13,2,15
2016/12/23 5:43,1.8,13,2.1,13,1.6,14
2016/12/23 5:44,1.5,12,1.8,13,1.1,13
2016/12/23 5:45,1.4,12,1.5,13,1.8,14
2016/12/23 5:46,1.3,12,1.4,13,3.8,11
2016/12/23 5:47,1.4,12,1.4,13,2.9,12
2016/12/23 5:48,1.4,12,1.4,13,3,14
2016/12/23 5:49,1.5,12,1.5,13,2.9,10
2016/12/23 5:50,1.5,12,1.5,13,2.9,10
2016/12/23 5:51,1.6,12,1.6,13,3.7,10
2016/12/23 5:52,1.7,12,1.7,13,3.2,12
2016/12/23 5:53,1.8,12,1.8,13,3.7,11
2016/12/23 5:54,2.1,12,2.1,12,5.1,11
2016/12/23 5:55,2.3,11,2.3,11,6,10
2016/12/23 5:56,2.3,11,2.4,11,5.1,9
2016/12/23 5:57,2.3,11,2.3,11,1.9,12
2016/12/23 5:58,2.2,11,2.2,11,1.6,9
2016/12/23 5:59,2.1,11,2.2,11,2.9,12
2016/12/23 6:00,2.3,11,2.3,11,3.9,13
2016/12/23 6:01,2.3,12,2.3,11,3.9,16
2016/12/23 6:02,2.2,12,2.3,11,2,12
2016/12/23 6:03,2.1,12,2.2,11,2.5,13
2016/12/23 6:04,1.8,13,2,11,2.5,14
2016/12/23 6:05,1.6,13,1.8,11,3,12
2016/12/23 6:06,1.6,13,1.6,11,2.7,12
2016/12/23 6:07,1.5,13,1.6,11,1.6,13
2016/12/23 6:08,1.5,13,1.5,11,1.3,14
2016/12/23 6:09,1.4,13,1.5,11,1.3,11
2016/12/23 6:10,1.3,13,1.4,11,3.1,10
2016/12/23 6:11,1.1,13,1.2,12,2.9,10
2016/12/23 6:12,1.1,12,1.1,12,2.1,10
2016/12/23 6:13,1.1,12,1.1,12,1.3,11
2016/12/23 6:14,1,11,1.1,13,1.5,10
2016/12/23 6:15,0.9,11,1,13,1.1,7
2016/12/23 6:16,1,11,1,13,3.1,15
2016/12/23 6:17,0.9,11,1,13,1.9,11
2016/12/23 6:18,1,11,1,13,1.9,16
2016/12/23 6:19,1.1,12,1.1,13,2.4,16
2016/12/23 6:20,1.2,13,1.2,13,3,16
2016/12/23 6:21,1.2,14,1.2,12,2.4,16
2016/12/23 6:22,1.2,15,1.2,12,2.1,1
2016/12/23 6:23,1.3,16,1.3,16,2.6,15
2016/12/23 6:24,1.5,16,1.5,16,4.7,16
2016/12/23 6:25,1.7,16,1.7,16,3.1,15
2016/12/23 6:26,1.7,16,1.7,16,3,16
2016/12/23 6:27,1.8,16,1.8,16,2.6,16
2016/12/23 6:28,1.9,16,1.9,16,2.2,15
2016/12/23 6:29,2,16,2,16,4.5,14
2016/12/23 6:30,2.1,15,2.1,15,4.1,14
2016/12/23 6:31,2.3,15,2.3,15,5.5,12
2016/12/23 6:32,2.5,15,2.5,15,4.9,13
2016/12/23 6:33,2.4,14,2.5,15,2.7,14
2016/12/23 6:34,2.2,14,2.4,15,2.5,12
2016/12/23 6:35,2.2,14,2.2,15,2.6,8
2016/12/23 6:36,2,13,2.1,15,1.8,9
2016/12/23 6:37,2,12,2,15,3.3,9
2016/12/23 6:38,2,12,2,15,3,8
2016/12/23 6:39,1.9,11,2,15,2.5,9
2016/12/23 6:40,1.8,10,1.9,15,1.6,9
2016/12/23 6:41,1.5,10,1.7,15,2.2,9
2016/12/23 6:42,1.4,9,1.5,15,1.9,9
2016/12/23 6:43,1.3,9,1.4,14,0.8,9
2016/12/23 6:44,1.2,9,1.3,14,0.1,14
2016/12/23 6:45,1.1,10,1.2,14,1.3,13
2016/12/23 6:46,1.2,10,1.2,13,1.5,13
2016/12/23 6:47,1,10,1.2,12,0.8,12
2016/12/23 6:48,1,11,1,11,3,16
2016/12/23 6:49,1,12,1,11,3.2,16
2016/12/23 6:50,1.1,13,1.1,10,3.2,16
2016/12/23 6:51,1.1,14,1.1,10,2.7,16
2016/12/23 6:52,1,14,1.1,9,1.3,16
2016/12/23 6:53,1.1,15,1.1,9,1.4,14
2016/12/23 6:54,1.2,15,1.2,9,1.1,13
2016/12/23 6:55,1.1,14,1.2,10,0.6,11
2016/12/23 6:56,1.1,15,1.1,10,1.3,15
2016/12/23 6:57,1.2,15,1.2,15,2,14
2016/12/23 6:58,1.2,14,1.2,15,2.2,14
2016/12/23 6:59,1.1,14,1.2,15,1.4,14
2016/12/23 7:00,0.9,14,1,15,1.8,10
2016/12/23 7:01,0.8,13,0.9,15,1.8,9
2016/12/23 7:02,0.9,13,0.9,15,2.1,15
2016/12/23 7:03,0.9,13,0.9,15,2,12
2016/12/23 7:04,1,13,1,15,1.5,14
2016/12/23 7:05,1.1,13,1.1,15,2.5,12
2016/12/23 7:06,1.2,13,1.2,15,3.1,9
2016/12/23 7:07,1.2,13,1.2,15,3.1,16
2016/12/23 7:08,1.1,13,1.2,14,2.2,15
2016/12/23 7:09,1.3,13,1.3,13,2.4,12
2016/12/23 7:10,1.4,13,1.4,13,3.3,10
2016/12/23 7:11,1.5,13,1.5,13,4.1,13
2016/12/23 7:12,1.7,13,1.7,13,3.7,13
2016/12/23 7:13,1.8,13,1.8,13,4.2,13
2016/12/23 7:14,1.9,13,1.9,13,3.2,13
2016/12/23 7:15,1.8,13,1.9,13,2.9,12
2016/12/23 7:16,1.9,13,1.9,13,2.9,14
2016/12/23 7:17,1.8,13,1.9,13,3,14
2016/12/23 7:18,1.9,13,1.9,13,3.6,14
2016/12/23 7:19,2,13,2,13,5.2,13
2016/12/23 7:20,2.1,13,2.1,13,4.4,15
2016/12/23 7:21,2.1,13,2.1,13,5,13
2016/12/23 7:22,2.2,13,2.2,13,6.1,14
2016/12/23 7:23,2.2,13,2.2,13,3.1,14
2016/12/23 7:24,2.1,13,2.2,13,3.2,10
2016/12/23 7:25,2.3,13,2.3,13,3.6,10
2016/12/23 7:26,2.3,13,2.3,13,2.2,10
2016/12/23 7:27,2.3,13,2.3,13,3.7,12
2016/12/23 7:28,2.4,12,2.4,13,4.2,12
2016/12/23 7:29,2.4,12,2.5,12,3.6,10
2016/12/23 7:30,2.3,12,2.4,12,2.1,12
2016/12/23 7:31,2.3,12,2.3,12,5,13
2016/12/23 7:32,2.1,11,2.2,12,2.2,13
2016/12/23 7:33,2,11,2.1,12,3.3,8
2016/12/23 7:34,2.1,11,2.1,12,3.8,11
2016/12/23 7:35,2.2,11,2.2,12,4.7,10
2016/12/23 7:36,2.3,11,2.3,12,5.8,10
2016/12/23 7:37,2.3,11,2.4,12,5.4,12
2016/12/23 7:38,2.2,11,2.3,12,2.7,11
2016/12/23 7:39,2.1,11,2.1,12,3.3,9
2016/12/23 7:40,2,11,2.1,11,3.1,8
2016/12/23 7:41,1.9,11,2,11,2.9,10
2016/12/23 7:42,1.9,11,1.9,11,2.5,10
2016/12/23 7:43,1.9,11,1.9,11,2.1,8
2016/12/23 7:44,1.9,10,1.9,11,4.4,10
2016/12/23 7:45,1.8,10,1.9,11,4.3,10
2016/12/23 7:46,1.7,10,1.8,11,3.1,10
2016/12/23 7:47,1.6,10,1.7,11,3.2,11
2016/12/23 7:48,1.6,10,1.6,11,4.1,9
2016/12/23 7:49,1.6,10,1.7,11,4.1,9
2016/12/23 7:50,1.8,10,1.8,11,3.9,9
2016/12/23 7:51,2,10,2,10,4.8,9
2016/12/23 7:52,2,10,2,10,4.1,10
2016/12/23 7:53,2.3,10,2.3,10,4.8,9
2016/12/23 7:54,2.3,10,2.3,10,4.4,11
2016/12/23 7:55,2.2,10,2.3,10,3.3,11
2016/12/23 7:56,2.1,10,2.2,10,2.1,12
2016/12/23 7:57,2.1,10,2.1,10,2,12
2016/12/23 7:58,2,10,2.1,10,1.5,10
2016/12/23 7:59,2,10,2,10,3.5,10
2016/12/23 8:00,1.8,10,2,10,2.5,10
2016/12/23 8:01,1.7,10,1.8,10,2.9,11
2016/12/23 8:02,1.7,10,1.7,10,3.3,9
2016/12/23 8:03,1.6,11,1.7,10,4.5,10
2016/12/23 8:04,1.6,11,1.6,10,5.1,10
2016/12/23 8:05,1.7,11,1.7,10,5,9
2016/12/23 8:06,1.9,10,1.9,10,3.2,11
2016/12/23 8:07,2.1,10,2.1,10,4.9,9
2016/12/23 8:08,2.2,10,2.2,10,4.2,9
2016/12/23 8:09,2.3,10,2.3,10,4.3,10
2016/12/23 8:10,2.5,10,2.5,10,4.8,10
2016/12/23 8:11,2.5,10,2.5,10,4.4,9
2016/12/23 8:12,2.6,10,2.6,10,4.5,9
2016/12/23 8:13,2.5,10,2.6,10,4.2,10
2016/12/23 8:14,2.3,10,2.5,10,3.3,10
2016/12/23 8:15,2.3,10,2.3,10,5.5,11
2016/12/23 8:16,2.4,10,2.4,10,4.2,9
2016/12/23 8:17,2.3,10,2.3,10,3.3,10
2016/12/23 8:18,2.3,10,2.3,10,6.2,9
2016/12/23 8:19,2.4,10,2.4,10,4.3,9
2016/12/23 8:20,2.3,10,2.4,10,3.8,10
2016/12/23 8:21,2.4,10,2.5,10,4.9,9
2016/12/23 8:22,2.4,10,2.5,10,5.1,8
2016/12/23 8:23,2.5,10,2.5,10,4.5,10
2016/12/23 8:24,2.7,10,2.7,10,4.2,11
2016/12/23 8:25,2.6,10,2.7,10,3,11
2016/12/23 8:26,2.5,10,2.6,10,2.9,8
2016/12/23 8:27,2.3,10,2.4,10,2,11
2016/12/23 8:28,2.1,10,2.3,10,1.9,12
2016/12/23 8:29,1.9,10,2.1,10,1,6
2016/12/23 8:30,1.8,10,1.9,10,1,12
2016/12/23 8:31,1.8,10,1.8,10,5.7,10
2016/12/23 8:32,1.8,10,1.8,10,4.5,11
2016/12/23 8:33,1.9,10,1.9,10,3.2,10
2016/12/23 8:34,1.8,10,1.8,10,4.5,11
2016/12/23 8:35,1.9,10,1.9,10,4.2,10
2016/12/23 8:36,1.8,10,1.9,10,3.7,7
2016/12/23 8:37,1.8,10,1.8,10,2,9
2016/12/23 8:38,1.9,10,1.9,10,3.3,10
2016/12/23 8:39,2.2,10,2.2,10,5.6,10
2016/12/23 8:40,2.5,10,2.5,10,6.4,9
2016/12/23 8:41,2.4,10,2.5,10,5.2,9
2016/12/23 8:42,2.3,10,2.4,10,4.5,9
2016/12/23 8:43,2.3,10,2.3,10,3.8,11
2016/12/23 8:44,2.3,10,2.3,10,3.8,10
2016/12/23 8:45,2.3,10,2.3,10,3.3,10
2016/12/23 8:46,2.4,10,2.4,10,4.2,11
2016/12/23 8:47,2.5,10,2.5,10,4.3,9
2016/12/23 8:48,2.7,10,2.7,10,6,10
2016/12/23 8:49,2.8,10,2.8,10,6.3,11
2016/12/23 8:50,2.8,10,2.9,10,6.1,10
2016/12/23 8:51,2.9,10,2.9,10,5.2,10
2016/12/23 8:52,2.9,10,2.9,10,4.5,9
2016/12/23 8:53,2.9,10,2.9,10,4.3,9
2016/12/23 8:54,3,10,3,10,5.2,10
2016/12/23 8:55,3,10,3,10,3.6,9
2016/12/23 8:56,2.8,10,3,10,2.5,12
2016/12/23 8:57,2.9,10,2.9,10,3.6,10
2016/12/23 8:58,2.6,10,2.9,10,4.1,9
2016/12/23 8:59,2.4,10,2.6,10,5.4,9
2016/12/23 9:00,2.3,10,2.4,10,5.2,10
2016/12/23 9:01,2.1,10,2.3,10,5.1,9
2016/12/23 9:02,2.3,10,2.3,10,7.5,10
2016/12/23 9:03,2.4,10,2.4,10,5,10
2016/12/23 9:04,2.4,10,2.4,10,5.4,10
2016/12/23 9:05,2.6,10,2.6,10,5.7,12
2016/12/23 9:06,3,10,3,10,6.2,9
2016/12/23 9:07,3.1,10,3.1,10,6.7,10
2016/12/23 9:08,3.2,10,3.2,10,5.6,10
2016/12/23 9:09,3.3,10,3.3,10,4.9,11
2016/12/23 9:10,3.4,11,3.4,10,5.6,10
2016/12/23 9:11,3.4,11,3.4,10,5.5,9
2016/12/23 9:12,3.3,11,3.4,10,4.3,10
2016/12/23 9:13,3.3,11,3.3,10,5.8,10
2016/12/23 9:14,3.2,11,3.3,10,5.2,10
2016/12/23 9:15,2.9,11,3.1,10,2.7,9
2016/12/23 9:16,2.7,11,2.9,10,3.7,11
2016/12/23 9:17,2.5,11,2.6,10,4.2,13
2016/12/23 9:18,2.5,11,2.5,10,4.2,10
2016/12/23 9:19,2.3,11,2.5,10,3.5,10
2016/12/23 9:20,2.2,11,2.3,11,3,12
2016/12/23 9:21,2.1,11,2.2,11,2.9,10
2016/12/23 9:22,2,11,2,11,2.5,13
2016/12/23 9:23,1.7,11,1.9,11,2.5,12
2016/12/23 9:24,1.7,11,1.7,11,3.2,11
2016/12/23 9:25,1.8,11,1.8,11,4.1,12
2016/12/23 9:26,1.7,11,1.8,11,2.7,11
2016/12/23 9:27,1.7,11,1.7,11,3.1,8
2016/12/23 9:28,1.6,12,1.7,11,3.1,13
2016/12/23 9:29,1.6,11,1.6,11,3.1,10
2016/12/23 9:30,1.7,11,1.7,11,5.1,10
2016/12/23 9:31,1.8,11,1.8,11,4.1,11
2016/12/23 9:32,1.8,11,1.8,11,3.2,8
2016/12/23 9:33,1.8,11,1.8,11,1.9,11
2016/12/23 9:34,1.9,11,1.9,11,4.9,12
2016/12/23 9:35,1.8,11,1.9,11,2.6,11
2016/12/23 9:36,1.8,11,1.8,11,3.2,11
2016/12/23 9:37,1.8,11,1.8,11,2.7,11
2016/12/23 9:38,1.7,11,1.8,11,1.4,10
2016/12/23 9:39,1.7,12,1.7,11,2.5,13
2016/12/23 9:40,1.4,12,1.7,11,2.4,13
2016/12/23 9:41,1.4,12,1.4,11,3.7,9
2016/12/23 9:42,1.5,12,1.5,11,3.1,12
2016/12/23 9:43,1.5,11,1.5,11,3.2,12
2016/12/23 9:44,1.4,11,1.5,11,2,10
2016/12/23 9:45,1.4,11,1.4,11,2.1,8
2016/12/23 9:46,1.4,12,1.4,11,2.9,10
2016/12/23 9:47,1.4,12,1.4,11,2.1,12
2016/12/23 9:48,1.4,11,1.4,11,2.4,9
2016/12/23 9:49,1.4,11,1.4,12,2.4,10
2016/12/23 9:50,1.6,11,1.6,11,3.8,9
2016/12/23 9:51,1.6,11,1.6,11,2.6,10
2016/12/23 9:52,1.4,11,1.6,11,2.9,11
2016/12/23 9:53,1.5,11,1.5,11,3.6,10
2016/12/23 9:54,1.5,11,1.5,11,4.4,10
2016/12/23 9:55,1.7,10,1.7,10,5.2,10
2016/12/23 9:56,1.8,10,1.8,10,3.3,9
2016/12/23 9:57,1.8,10,1.8,10,3.9,10
2016/12/23 9:58,2,10,2,10,4.1,12
2016/12/23 9:59,2.2,10,2.2,10,6,11
2016/12/23 10:00,2.4,10,2.4,10,5.8,12
2016/12/23 10:01,2.5,10,2.5,10,6.3,10
2016/12/23 10:02,2.7,10,2.7,10,6.2,10
2016/12/23 10:03,2.7,10,2.7,10,4.3,9
2016/12/23 10:04,2.8,11,2.8,11,6.3,11
2016/12/23 10:05,2.9,11,2.9,11,5.2,12
2016/12/23 10:06,2.9,11,2.9,11,4.5,13
2016/12/23 10:07,2.9,11,2.9,11,4.2,12
2016/12/23 10:08,2.9,11,2.9,11,3.5,9
2016/12/23 10:09,2.7,11,2.8,11,4.1,12
2016/12/23 10:10,2.4,11,2.6,11,2.5,11
2016/12/23 10:11,2.4,11,2.4,11,4.3,9
2016/12/23 10:12,2.2,11,2.4,11,3.5,10
2016/12/23 10:13,2.3,11,2.3,11,3.1,11
2016/12/23 10:14,2.1,11,2.3,11,3.2,11
2016/12/23 10:15,2,11,2.1,11,4.1,9
2016/12/23 10:16,1.8,11,2,11,2.2,10
2016/12/23 10:17,1.9,11,1.9,11,4.8,11
2016/12/23 10:18,1.9,11,2,11,6.3,11
2016/12/23 10:19,1.9,11,2,11,2.5,12
2016/12/23 10:20,2,11,2,11,4.1,9
2016/12/23 10:21,2,11,2,11,4.3,9
2016/12/23 10:22,2,11,2,11,4.1,13
2016/12/23 10:23,2.1,11,2.1,11,4.1,11
2016/12/23 10:24,2.2,11,2.2,11,5.4,9
2016/12/23 10:25,2.3,11,2.3,11,4.5,11
2016/12/23 10:26,2.4,11,2.4,11,4.1,9
2016/12/23 10:27,2.2,11,2.4,11,3.3,13
2016/12/23 10:28,2.1,11,2.2,11,2.7,8
2016/12/23 10:29,2.2,10,2.2,11,4.7,9
2016/12/23 10:30,2.3,10,2.3,11,4.2,9
2016/12/23 10:31,2.3,10,2.3,11,4.1,10
2016/12/23 10:32,2.2,10,2.3,11,2.9,10
2016/12/23 10:33,2.1,10,2.2,11,4.9,11
2016/12/23 10:34,2.1,10,2.1,11,3.8,12
2016/12/23 10:35,2,10,2.1,11,3.5,9
2016/12/23 10:36,2,10,2,11,3.6,10
2016/12/23 10:37,2,10,2,10,3.5,9
2016/12/23 10:38,2,10,2,10,1.4,13
2016/12/23 10:39,1.9,10,2,10,2.5,9